Location: Cadenet
(43.7345°N, 5.3750°E)
Time: 04:57:01
(UTC+00:00)

SL-16 R/B - Pass Details

Date: 18 February 2020
Orbit: 843 x 847 km, 71.0° (Epoch: 29 March)

Event Time Altitude Azimuth Distance (km) Brightness Sun altitude
Exits shadow 04:28:39 47° 302° (WNW) 1,106 2.4 -23.2°
Drops below altitude 10° 04:34:06 10° 15° (NNE) 2,475 4.9 -22.3°
Sets 04:36:39 0° 21° (NNE) 3,413 5.7 -21.8°
